TimeEDT,TemperatureF,Dew PointF,Humidity,Sea Level PressureIn,VisibilityMPH,Wind Direction,Wind SpeedMPH,Gust SpeedMPH,PrecipitationIn,Events,Conditions,WindDirDegrees,DateUTC
12:53 AM,28.9,26.1,89,29.78,10.0,North,9.2,-,N/A,,Clear,360,2013-03-25 04:53:00
1:53 AM,28.0,25.0,88,29.78,10.0,NNW,10.4,-,N/A,,Clear,340,2013-03-25 05:53:00
2:53 AM,25.0,24.1,96,29.77,10.0,North,8.1,-,N/A,,Clear,350,2013-03-25 06:53:00
3:53 AM,27.0,25.0,92,29.77,10.0,NW,9.2,-,N/A,,Clear,320,2013-03-25 07:53:00
4:53 AM,26.1,25.0,96,29.76,10.0,NW,5.8,-,N/A,,Scattered Clouds,320,2013-03-25 08:53:00
5:04 AM,24.8,24.8,100,29.73,10.0,NNW,3.5,-,N/A,,Mostly Cloudy,330,2013-03-25 09:04:00
5:53 AM,26.1,25.0,96,29.76,10.0,NNW,6.9,-,N/A,,Overcast,330,2013-03-25 09:53:00
6:53 AM,27.0,26.1,96,29.77,10.0,NNW,5.8,-,N/A,,Overcast,340,2013-03-25 10:53:00
7:00 AM,28.4,26.6,93,29.74,10.0,NNW,5.8,-,N/A,,Overcast,340,2013-03-25 11:00:00
7:53 AM,28.0,25.0,88,29.77,10.0,NNW,8.1,-,N/A,,Mostly Cloudy,340,2013-03-25 11:53:00
8:34 AM,28.4,24.8,86,29.74,10.0,North,11.5,-,N/A,,Overcast,350,2013-03-25 12:34:00
8:53 AM,30.0,25.0,82,29.76,10.0,North,10.4,-,N/A,,Overcast,360,2013-03-25 12:53:00
9:04 AM,30.2,24.8,80,29.73,10.0,North,10.4,-,N/A,,Overcast,360,2013-03-25 13:04:00
9:53 AM,30.9,23.0,72,29.77,10.0,North,8.1,-,N/A,,Overcast,10,2013-03-25 13:53:00
10:53 AM,30.9,21.9,69,29.76,10.0,NNE,9.2,-,N/A,,Overcast,20,2013-03-25 14:53:00
11:53 AM,32.0,21.9,66,29.76,10.0,NNE,9.2,-,N/A,,Overcast,20,2013-03-25 15:53:00
12:53 PM,33.1,21.0,61,29.75,10.0,NNE,11.5,-,N/A,,Overcast,30,2013-03-25 16:53:00
1:53 PM,34.0,21.0,59,29.74,10.0,North,9.2,-,N/A,,Overcast,10,2013-03-25 17:53:00
2:03 PM,33.8,21.2,60,29.71,10.0,North,10.4,-,N/A,,Overcast,10,2013-03-25 18:03:00
2:14 PM,33.8,21.2,60,29.71,10.0,NNE,9.2,16.1,N/A,,Overcast,20,2013-03-25 18:14:00
2:44 PM,33.8,21.2,60,29.71,10.0,NNE,9.2,-,N/A,,Overcast,30,2013-03-25 18:44:00
2:53 PM,34.0,21.9,61,29.74,10.0,North,9.2,-,N/A,,Overcast,10,2013-03-25 18:53:00
3:53 PM,36.0,21.0,55,29.73,10.0,North,6.9,-,N/A,,Overcast,10,2013-03-25 19:53:00
4:53 PM,36.0,19.9,52,29.72,10.0,NE,4.6,-,N/A,,Mostly Cloudy,40,2013-03-25 20:53:00
5:53 PM,37.0,19.9,50,29.71,10.0,NNE,4.6,-,N/A,,Overcast,20,2013-03-25 21:53:00
6:53 PM,35.1,23.0,61,29.71,10.0,NE,10.4,19.6,N/A,,Overcast,40,2013-03-25 22:53:00
7:53 PM,33.1,24.1,70,29.71,10.0,NNE,8.1,-,N/A,,Overcast,20,2013-03-25 23:53:00
8:53 PM,30.9,24.1,76,29.72,10.0,NNE,8.1,-,N/A,,Mostly Cloudy,20,2013-03-26 00:53:00
9:53 PM,28.9,23.0,78,29.72,10.0,North,6.9,-,N/A,,Clear,10,2013-03-26 01:53:00
10:53 PM,27.0,23.0,85,29.71,10.0,North,6.9,-,N/A,,Clear,360,2013-03-26 02:53:00
11:53 PM,26.1,23.0,88,29.69,10.0,North,9.2,-,N/A,,Clear,360,2013-03-26 03:53:00